Regional Weather Roundup
Issued by NWS

Home | Current Version | Previous Version | Text Only | Print | Product List | Glossary Off
Versions: 1 2 3 4 5 6 7 8 9 10 11 12 13 14 15 16 17 18 19 20 21 22 23 24 25 26 27 28 29 30 31 32 33 34 35 36 37 38 39 40 41 42 43 44 45 46 47 48 49 50

000
ASUS43 KMPX 181001
RWRMN
WEATHER ROUNDUP FOR MINNESOTA
NATIONAL WEATHER SERVICE TWIN CITIES/CHANHASSEN MN
500 AM CDT SAT APR 18 2015


NOTE: "FAIR" INDICATES FEW OR NO CLOUDS BELOW 12,000 FEET WITH NO
SIGNIFICANT WEATHER AND/OR OBSTRUCTIONS TO VISIBILITY. N/A MEANS
CURRENT SKY AND/OR WEATHER CONDITIONS ARE NOT AVAILABLE.

MNZ060>063-068>070-181100-
   Twin Cities Metro

CITY           SKY/WX    TMP DP  RH WIND       PRES   REMARKS
TWIN CITIES    PTCLDY    55  29  36 NE10      30.07R
ST PAUL        CLEAR     54  29  38 CALM      30.08R
CRYSTAL        CLEAR     50  29  44 CALM      30.07R
BLAINE         CLEAR     46  30  53 CALM      30.08R
LAKEVILLE      PTCLDY    39  36  87 CALM      30.06S
EDEN PRAIRIE   PTCLDY    52  30  43 NE7       30.05R
SOUTH ST PAUL  CLEAR     55  29  37 N3        30.07R
LAKE ELMO      FAIR      50  32  50 NE8       30.09R
$$
MNZ001>005-007-008-013>017-022>024-027-028-181100-
   Northwest Minnesota

CITY           SKY/WX    TMP DP  RH WIND       PRES   REMARKS
BEMIDJI        CLEAR     33  28  80 E7        30.17R WCI  27
HALLOCK        CLEAR     39  28  65 E12       30.18S
ROSEAU         CLEAR     36  28  75 E9        30.20R
WARROAD        CLEAR     34  30  86 E7        30.22R WCI  28
THIEF RVR FALL CLEAR     37  28  70 E9        30.18R
CROOKSTON      CLEAR     37  28  70 E12       30.16F
FOSSTON        CLEAR     34  25  69 E6        30.16S WCI  29
DETROIT LAKES  CLEAR     45  30  57 E5        30.12F
MOORHEAD       CLEAR     36  21  55 N5        30.11S
PARK RAPIDS    CLEAR     43  29  57 NE8       30.12F
MAHNOMEN       FAIR      35  26  68 NE7       30.13F WCI  29
$$
MNZ006-009>011-018-025>026-181100-
   North Central Minnesota

CITY           SKY/WX    TMP DP  RH WIND       PRES   REMARKS
BAUDETTE       CLEAR     34  29  82 E5        30.21R WCI  30
FLAG ISLAND    CLEAR     34  30  86 CALM      30.21S
INTL FALLS     CLEAR     30  26  85 E6        30.22R WCI  24
WASKISH        CLEAR     34  30  86 CALM      30.20R
BIG FORK       CLEAR     36  28  75 NE3       30.20R
LONGVILLE      CLEAR     36  27  69 NE3       30.15S
GRAND RAPIDS   CLEAR     39  27  60 CALM      30.17S
ORR            CLEAR     32  27  80 CALM      30.18S
COOK           CLEAR     34  28  80 CALM      30.20R
WALKER         FAIR      42  31  65 E7        30.15S
$$
MNZ012-019>021-037-181100-
   Northeast Minnesota

CITY           SKY/WX    TMP DP  RH WIND       PRES   REMARKS
DULUTH         CLEAR     41  28  60 E10       30.16S
ELY            CLEAR     36  30  80 NE5       30.20S
HIBBING        CLEAR     34  27  75 SE3       30.18R
EVELETH        CLEAR     36  30  80 E6        30.18S
DULUTH HARBOR  CLEAR     39  36  87 E14       30.20S
TWO HARBORS    CLEAR     39  30  70 CALM      30.18R
SILVER BAY     CLEAR     39  30  70 NE6       30.18S
GRAND MARAIS     N/A     40  30  67 NE7       30.19S
G MARAIS ARPRT CLEAR     32  27  80 N12G17    30.17R WCI  23
$$
MNZ029>031-032-039>041-046>048-054>057-064-181100-
   West Central Minnesota

CITY           SKY/WX    TMP DP  RH WIND       PRES   REMARKS
FERGUS FALLS   CLEAR     48  21  34 E12G18    30.09F
WHEATON        CLEAR     45  23  42 NE7       30.09R
MORRIS         PTCLDY    52  27  37 E14G21    30.06R
ALEXANDRIA     CLEAR     47  24  40 NE13      30.09F
ELBOW LAKE     FAIR      50  26  40 E15G22    30.07S
WADENA         CLEAR     41  25  52 NE7       30.12S
GLENWOOD       CLEAR     45  27  49 NE8       30.09R
APPLETON       PTCLDY    46  28  49 E10       30.06S
BENSON         PTCLDY    48  25  40 E9        30.06R
ORTONVILLE     PTCLDY    46  28  49 E9        30.06R
MADISON        PTCLDY    37  21  52 NW3       30.06S
WILLMAR        FAIR      52  30  43 E15       30.08R
$$
MNZ033>034-036-042>043-049>051-058-059-181100-
   Central Minnesota

CITY           SKY/WX    TMP DP  RH WIND       PRES   REMARKS
ST CLOUD       CLEAR     50  25  37 NE10      30.09R
SAUK CENTRE    FAIR      48  27  44 NE10      30.08F
PAYNESVILLE    CLEAR     45  27  49 N8        30.09R
AITKIN         CLEAR     45  30  57 NE3       30.12S
PINE RIVER     CLEAR     37  27  65 CALM      30.17S
BRAINERD       CLEAR     42  28  57 NE7       30.13R
STAPLES        CLEAR     43  25  49 NE3       30.11F
LONG PRAIRIE   FAIR      45  27  49 NE7       30.10F
LITTLE FALLS   CLEAR     45  27  49 CALM      30.11S
LITCHFIELD     PTCLDY    50  28  43 NE7       30.08R
BUFFALO        FAIR      50  28  42 NE9       30.09R
MAPLE LAKE     CLEAR     49  30  47 NE6       30.09R
$$
MNZ037-044-045-052-053-181100-
   East Central Minnesota

CITY           SKY/WX    TMP DP  RH WIND       PRES   REMARKS
PRINCETON      CLEAR     50  28  43 NE8       30.09F
MORA           CLEAR     45  28  53 NE5       30.13S
CAMBRIDGE      CLEAR     52  34  50 NE5       30.08S
RUSH CITY      PTCLDY    48  29  48 NE8       30.11R
MOOSE LAKE     CLEAR     43  30  61 E8        30.13S
HINCKLEY       FAIR      45  32  61 NE6       30.12S
CLOQUET        CLEAR     43  28  56 E12       30.15F
MCGREGOR       CLEAR     41  30  65 NE5       30.14F
$$
MNZ071>073-080-081-089-090-097-098-181100-
   Southwest Minnesota

CITY           SKY/WX    TMP DP  RH WIND       PRES   REMARKS
MONTEVIDEO     PTCLDY    43  25  49 E9        30.07S
GRANITE FALLS  PTCLDY    38  24  55 CALM      30.07F
CANBY          CLEAR     45  27  49 W5        30.07S
MARSHALL       PTCLDY    41  19  42 N7        30.05S
REDWOOD FALLS  PTCLDY    43  28  55 CALM      30.05S
OLIVIA         MOCLDY    46  28  49 NE8       30.06R
PIPESTONE      MOCLDY    55  18  22 E7        30.03S
WORTHINGTON    MOCLDY    48  25  40 NE7       30.04F
JACKSON        MOCLDY    50  28  43 E8        30.04S
TRACY          MOCLDY    51  28  40 CALM      30.04F
SLAYTON        MOCLDY    50  25  36 CALM      30.05S
$$
MNZ065>067-074>077-082>085-091>093-181100-
   South Central Minnesota

CITY           SKY/WX    TMP DP  RH WIND       PRES   REMARKS
MANKATO        MOCLDY    55  28  35 CALM      30.04S
NEW ULM        PTCLDY    48  30  49 NE5       30.05S
ST JAMES       PTCLDY    45  34  65 CALM      30.05S
FAIRMONT       MOCLDY    50  25  37 CALM      30.03S
GLENCOE        MOCLDY    47  31  52 N5        30.06S
FARIBAULT      PTCLDY    39  36  87 N3        30.06S
OWATONNA       PTCLDY    46  37  71 CALM      30.05S
ALBERT LEA     MOCLDY    52  37  58 E3        30.04F
$$
MNZ078>079-086>088-094>096-181100-
   Southeast Minnesota

CITY           SKY/WX    TMP DP  RH WIND       PRES   REMARKS
ROCHESTER      MOCLDY    55  34  45 E5        30.06S
RED WING       CLEAR     41  34  75 CALM      30.07R
STANTON        PTCLDY    38  33  81 CALM      30.06S
DODGE CENTER   PTCLDY    55  30  38 NE5       30.05F
WINONA         PTCLDY    46  43  87 NW3       30.05S
AUSTIN         MOCLDY    52  37  58 CALM      30.04F
PRESTON        MOCLDY    52  37  57 CALM      30.05F
$$
ABBREVIATIONS USED IN REMARKS
   TC - TEMPERATURES IN CELSIUS
  WCI - WIND CHILL INDEX
   HX - HEAT INDEX
  VSB - VISIBILITY
$$


USA.gov is the U.S. government's official web portal to all federal, state and local government web resources and services.